TimeEST,TemperatureF,Dew PointF,Humidity,Sea Level PressureIn,VisibilityMPH,Wind Direction,Wind SpeedMPH,Gust SpeedMPH,PrecipitationIn,Events,Conditions,WindDirDegrees,DateUTC
12:10 AM,26.1,23.0,88,29.47,2.5,NW,18.4,28.8,0.00,Snow,Light Snow,320,2014-02-16 05:10:00
12:25 AM,26.1,21.9,84,29.47,2.5,NW,21.9,32.2,0.00,Snow,Light Snow,320,2014-02-16 05:25:00
12:47 AM,26.1,21.9,84,29.48,3.0,NNW,23.0,36.8,0.00,Snow,Light Snow,330,2014-02-16 05:47:00
12:54 AM,26.1,21.0,81,29.52,4.0,NNW,21.9,36.8,0.00,Snow,Light Snow,330,2014-02-16 05:54:00
1:03 AM,26.1,19.9,78,29.47,2.0,NNW,25.3,44.9,0.00,Snow,Light Snow,330,2014-02-16 06:03:00
1:13 AM,26.1,19.9,78,29.48,5.0,NNW,23.0,34.5,0.00,,Mostly Cloudy,330,2014-02-16 06:13:00
1:54 AM,23.0,16.0,74,29.55,4.0,NW,25.3,35.7,0.00,,Partly Cloudy,310,2014-02-16 06:54:00
2:54 AM,19.9,12.0,71,29.58,4.0,NW,18.4,41.4,0.00,Snow,Blowing Snow,320,2014-02-16 07:54:00
3:54 AM,19.0,12.0,74,29.61,10.0,WNW,19.6,29.9,0.00,,Clear,300,2014-02-16 08:54:00
4:54 AM,19.0,10.9,71,29.63,10.0,WNW,19.6,26.5,N/A,,Clear,300,2014-02-16 09:54:00
5:54 AM,18.0,9.0,68,29.65,10.0,WNW,25.3,34.5,0.00,,Clear,290,2014-02-16 10:54:00
6:54 AM,17.1,8.1,68,29.69,9.0,West,23.0,29.9,0.00,,Clear,280,2014-02-16 11:54:00
7:54 AM,18.0,9.0,68,29.73,9.0,West,15.0,29.9,0.00,,Clear,270,2014-02-16 12:54:00
8:54 AM,19.0,8.1,62,29.73,10.0,WNW,17.3,28.8,N/A,,Clear,300,2014-02-16 13:54:00
9:54 AM,19.9,7.0,57,29.75,10.0,West,17.3,31.1,N/A,,Clear,270,2014-02-16 14:54:00
10:54 AM,19.9,7.0,57,29.77,10.0,West,19.6,23.0,N/A,,Clear,270,2014-02-16 15:54:00
11:54 AM,21.9,7.0,53,29.77,10.0,West,13.8,23.0,N/A,,Clear,280,2014-02-16 16:54:00
12:54 PM,23.0,7.0,50,29.77,10.0,WNW,23.0,32.2,N/A,,Clear,290,2014-02-16 17:54:00
1:54 PM,25.0,7.0,46,29.79,10.0,West,13.8,19.6,N/A,,Clear,260,2014-02-16 18:54:00
2:54 PM,26.1,7.0,44,29.81,10.0,West,11.5,-,N/A,,Clear,260,2014-02-16 19:54:00
3:54 PM,24.1,5.0,44,29.81,10.0,West,13.8,21.9,N/A,,Clear,280,2014-02-16 20:54:00
4:54 PM,23.0,3.9,44,29.83,10.0,WNW,15.0,21.9,N/A,,Mostly Cloudy,300,2014-02-16 21:54:00
5:54 PM,21.9,3.9,46,29.86,10.0,West,12.7,-,N/A,,Mostly Cloudy,280,2014-02-16 22:54:00
6:54 PM,19.9,6.1,55,29.88,10.0,West,10.4,-,N/A,,Overcast,270,2014-02-16 23:54:00
7:54 PM,19.9,6.1,55,29.90,10.0,West,10.4,-,N/A,,Overcast,270,2014-02-17 00:54:00
8:54 PM,18.0,7.0,62,29.91,10.0,West,15.0,-,N/A,,Overcast,280,2014-02-17 01:54:00
9:54 PM,18.0,7.0,62,29.93,10.0,WNW,13.8,23.0,N/A,,Overcast,290,2014-02-17 02:54:00
10:54 PM,17.1,6.1,62,29.94,10.0,WNW,19.6,-,N/A,,Overcast,290,2014-02-17 03:54:00
11:54 PM,16.0,5.0,62,29.97,10.0,WNW,16.1,24.2,N/A,,Mostly Cloudy,300,2014-02-17 04:54:00